Current Version              Previous Version:    01  02  03  04  05  06  07  08  09  10  11  12  13  14  15  16  17  18  19  20  21  22  23  24  25  26  27  28  29  30  
   31  32  33  34  35  36  37  38  39  40  41  42  43  44  45  46  47  48  49  50  51  52  53  54  55  56  57  58  59  60  

[Printable]
118
ASUS44 KEWX 300402
RWRTX
SOUTH TEXAS REGIONAL WEATHER ROUNDUP
NATIONAL WEATHER SERVICE AUSTIN/SAN ANTONIO TX
1100 PM CDT MON SEP 29 2014

NOTE: "FAIR" INDICATED FEW OR NO CLOUDS BELOW 12,000 FEET WITH NO
SIGNIFICANT WEATHER AND/OR OBSTRUCTIONS TO VISIBILITY.

* - THESE STATIONS ARE NOT NWS OR FAA STATIONS...AND ARE NOT SUBJECT
    TO NWS AND FAA QUALITY CONTROL.

TXZ171-172-183>190-300500-
TEXAS HILL COUNTRY AND EDWARDS PLATEAU

CITY           SKY/WX    TMP DP  RH WIND       PRES   REMARKS
JUNCTION       PTCLDY    71  62  73 SW3       29.95S
*LLANO         CLEAR     70  63  78 CALM      29.96S
BURNET         CLEAR     73  59  61 CALM      29.95S
*HORSESHOE BAY CLEAR     73  59  62 S5        29.93S
*KERRVILLE     CLEAR     69  63  82 CALM      29.96S
*FREDERICKSBRG CLEAR     65  62  88 N3        29.96F
*ROCKSPRINGS   CLEAR     72  63  73 CALM      30.00S
*BOERNE STAGE  CLEAR     66  59  77 CALM      29.96S
*CASTROVILLE   CLEAR     74  63  68 CALM      29.93S
HONDO          CLEAR     73  64  73 CALM      29.94R
*UVALDE        CLEAR     75  70  83 CALM      29.93R
DEL RIO        PTCLDY    77  66  68 SE6       29.90R
LAUGHLIN AFB   CLEAR     75  68  78 SE8       29.91S
CARRIZO SPRGS  CLEAR     73  70  88 SW3       29.90R
$$

TXZ173-191>194-202-209-217>225-228-300500-
CENTRAL AND SOUTH CENTRAL TEXAS

CITY           SKY/WX    TMP DP  RH WIND       PRES   REMARKS
GEORGETOWN     CLEAR     72  63  73 CALM      29.91F
AUSTIN/BERGSTM PTCLDY    71  64  78 W3        29.89S
AUSTIN/MABRY   CLEAR     75  63  66 CALM      29.91S
*AUSTIN/EXEC   MOCLDY    73  63  68 CALM      29.90F
*LAGO VISTA    CLEAR     75  61  60 SE3       29.93F
SAN MARCOS     CLEAR     73  59  60 CALM      29.91S
NEW BRAUNFELS  CLEAR     71  63  75 CALM      29.90R
RANDOLPH AFB   CLEAR     73  64  71 E2        29.91S
PT SAN ANTONIO CLEAR     78  64  62 NE3       29.90R
SAN ANTONIO    CLEAR     78  63  59 CALM      29.92R
STINSON FIELD  CLEAR     73  67  81 CALM      29.89R
*PLEASANTON    CLEAR     74  65  74 CALM      29.90R
*LA GRANGE     CLEAR     73  68  83 CALM      29.87S
*GIDDINGS      CLEAR     71  64  80 CALM      29.93S
*GONZALES      CLEAR     76  66  71 CALM      29.88S
$$

TXZ163>164-176>182-195>201-210>213-226-227-235-300500-
SOUTHEAST TEXAS

CITY           SKY/WX    TMP DP  RH WIND       PRES   REMARKS
COLLEGE STN      N/A     76  65  68 MISG      29.89S
*BRYAN         CLEAR    N/A N/A N/A CALM      29.89F
*CALDWELL      CLEAR     70  64  83 CALM      29.92F
*CROCKETT      PTCLDY    79  73  83 E3        29.94S
*BRENHAM       CLEAR     73  67  79 CALM      29.90S
HUNTSVILLE     CLEAR     74  68  81 CALM      29.90S
CONROE         CLEAR     70  69  97 CALM      29.90S
HOUSTON BUSH   PTCLDY    76  71  85 NE3       29.89S
HOUSTON HOBBY  PTCLDY    77  73  87 CALM      29.88S
*HOUSTON SW AP PTCLDY    64  64 100 CALM      29.89S FOG
PEARLAND       CLEAR     77  72  84 CALM      29.90R
HOUSTON HOOKS  CLEAR     73  70  90 CALM      29.89S
ELLINGTON FLD  NOT AVBL
SUGAR LAND     CLEAR     76  72  87 SE3       29.89R
*HOUSTON EXEC  CLEAR     75  73  94 SE3       29.90S
*CLEVELAND MUN CLEAR     72  71  97 CALM      29.91R FOG
*WHARTON       CLEAR     74  72  92 S3        29.90R
*COLUMBUS      NOT AVBL
$$

TXZ214>216-236>238-300500-
THE UPPER TEXAS COAST

CITY           SKY/WX    TMP DP  RH WIND       PRES   REMARKS
*ORANGE        PTCLDY    76  76 100 CALM      29.90S
PORT ARTHUR    MOCLDY    78  73  84 NE6       29.88S
GALVESTON      PTCLDY    78  74  87 NE3       29.89S
ANGLETON       CLEAR     72  71  97 CALM      29.89R
*BAY CITY      CLEAR    N/A N/A N/A E3        29.88S
PALACIOS       CLEAR     76  73  91 E5        29.88R
$$

TXZ229>234-239>247-300500-
TEXAS COASTAL BEND AND RIO GRANDE PLAINS

CITY           SKY/WX    TMP DP  RH WIND       PRES   REMARKS
VICTORIA       CLEAR     76  74  93 SE6       29.89R
*BEEVILLE      FOG       77  74  89 SE3       29.89R VSB 1/4
ROCKPORT       CLEAR     79  75  87 E8        29.87R
*PORT ARANSAS  PTCLDY    80  74  82 E8        29.87S
*PORT LAVACA   CLEAR     76  74  91 E5        29.88S
*INGLESIDE     MOCLDY    81  73  78 E6        29.87R
CORPUS CHRISTI PTCLDY    78  74  87 E7        29.87R
CORPUS NAS     MOCLDY    81  76  84 E9        29.87R
*ROBSTOWN      NOT AVBL
ALICE          CLOUDY    77  74  90 CALM      29.88R
KINGSVILLE NAS NOT AVBL
COTULLA        MOCLDY    76  67  73 CALM      29.90R
*FAITH RANCH   CLEAR     75  68  78 SE6       29.92R
LAREDO         PTCLDY    79  72  79 SE7       29.92S
$$

TXZ248>255-300500-
DEEP SOUTH TEXAS

CITY           SKY/WX    TMP DP  RH WIND       PRES   REMARKS
BROWNSVILLE    PTCLDY    76  76 100 NW5       29.87R
PORT ISABEL    MOCLDY    76  74  93 W6        29.86R FOG
*SOUTH PADRE   MOCLDY    82  77  83 E6        29.86R HX  91
HARLINGEN      RAIN      77  76  96 CALM      29.86S
*HEBBRONVILLE    N/A     75  72  88 CALM      29.91S
MCALLEN        CLOUDY    78  74  87 NE7       29.88R
*WESLACO       LGT RAIN  76  73  90 N5G17     29.87F
FALFURRIAS     MOCLDY    74  73  97 CALM      29.88R
EDINBURG       CLOUDY    78  73  86 CALM      29.88R
*ZAPATA        PTCLDY    75  72  89 CALM      29.90S
$$

TXZ213>215-236>238-242>244-246-247-251-254-255-300500-
CMAN STATIONS

STATION/POSITION TIME  TEMP    WIND        PRES    WAVE
                       AIR SEA DIR/SP/G            HT/PER
                 (UTC) (F)     (DEG/KT/KT) (MB)    (FT/S)
SABINE PASS      0300          320/  2/  2   N/A
SEA RIM ST PARK  0300   77     330/  3/  4 1012.4
NORTH JETTY/GLS  0300          100/  1/  1   N/A
EAGLE POINT      0300          150/  4/  4   N/A
MORGANS POINT    0300          160/  2/  5   N/A
MISSION/ARANSAS  0300           80/  9     1013.0
PORT O`CONNOR    0300           90/ 10/ 12   N/A
PORT ARANSAS     0300   81 80   70/ 13/ 15 1011.7
MALAQUITE BEACH  0300           60/ 12/ 13   N/A
BAFFIN BAY       0300           70/ 10/ 11   N/A
PORT ISABEL      0300           80/  4/  8   N/A
$$

GMZ080-GMZ150>470-300500-
OFFSHORE BUOY REPORTS

STATION/POSITION TIME  TEMP    WIND        PRES    WAVE
                       AIR SEA DIR/SP/G            HT/PER
                 (UTC) (F)     (DEG/KT/KT) (MB)    (FT/S)
20 E GALVESTON   0400   80 81   80/  6/  6 1011.3    1/ 7
90 E PT ARANSAS  0400   81 83   80/ 10/ 12 1011.5    3/ 4
35 NE PT MANSFLD 0300   81 83   70/ 14/ 17 1010.0    4/ 5
200 E PT ISABEL  0300   81 84   90/  8/  8 1010.9    2/ 6
$$